Zurück zum Katalog

JILIN-01 KUANFU 02A

AktivWissenschaftSSO
NORAD 57696·PAYLOAD·🇨🇳 China

Gestartet Aug 25, 2023 von Jiuquan Satellite Launch Center

Loading…

Nächste Überflüge (nächste 24 Stunden)

TLE

AktuellSource: Space-Track

Epoche: Sep 14, 2026, 14:49 UTC

1 57696U 23127A   26257.61759657  .00003406  00000-0  21667-3 0  9994
2 57696  97.5555 350.3023 0013506   1.4102 358.7162 15.09404294169130

Verfolge JILIN-01 KUANFU 02A in Echtzeit mit AllMySat

Download on the App Store